Location: Kaikalui
(16.5250°N, 81.1500°E)
Time: 00:57:37
(UTC+00:00)

SJ-6B - Pass Details

Date: 14 April 2026
Orbit: 453 x 498 km, 97.3° (Epoch: 9 May)

Event Time Altitude Azimuth Distance (km) Brightness Sun altitude
Exits shadow 13:40:28 17° 131° (SE) 1,333 4.2 -12.5°
Maximum altitude 13:42:43 31° 77° (ENE) 886 3.4 -13.0°
Drops below altitude 10° 13:45:59 10° 13° (NNE) 1,699 5.3 -13.8°
Sets 13:48:13 0° 3° (N) 2,580 6.4 -14.3°
